,,,PA_Meas_PMT16A,,PR_Meas_QMR101_102,,RH_Meas_QMH101,,SR_Meas_QMS101,,TA_Meas_QMH101,,GenWind,,GenWind,
date,time,status,PA,status,PR,status,RH,status,SR,status,TA,status,DirAvg,status,SpdAvg,
2012-03-01, 00:00:04,VALID,1002.31,VALID,0,VALID,94.3998,VALID,0,VALID,23.7035,VALID,50,VALID,0,
2012-03-01, 00:01:04,VALID,1002.3,VALID,0,VALID,94.415,VALID,0,VALID,23.6823,VALID,50,VALID,0,
2012-03-01, 00:02:04,VALID,1002.3,VALID,0,VALID,94.4074,VALID,0,VALID,23.7035,VALID,50,VALID,0,
2012-03-01, 00:03:04,VALID,1002.29,VALID,0,VALID,94.3235,VALID,0,VALID,23.6434,VALID,50,VALID,0,
2012-03-01, 00:04:04,VALID,1002.28,VALID,0,VALID,94.2243,VALID,0,VALID,23.6257,VALID,50,VALID,0,
2012-03-01, 00:05:04,VALID,1002.26,VALID,0,VALID,94.2319,VALID,0,VALID,23.5655,VALID,50,VALID,0,
2012-03-01, 00:06:04,VALID,1002.25,VALID,0,VALID,94.3006,VALID,0,VALID,23.546,VALID,50,VALID,0,
2012-03-01, 00:07:04,VALID,1002.24,VALID,0,VALID,94.3158,VALID,0,VALID,23.5266,VALID,50,VALID,0,
2012-03-01, 00:08:04,VALID,1002.22,VALID,0,VALID,94.3769,VALID,0,VALID,23.5478,VALID,50,VALID,0,
2012-03-01, 00:09:04,VALID,1002.21,VALID,0,VALID,94.4608,VALID,0,VALID,23.5673,VALID,50,VALID,0,
2012-03-01, 00:10:04,VALID,1002.21,VALID,0,VALID,94.4837,VALID,0,VALID,23.5868,VALID,50,VALID,0,
2012-03-01, 00:11:04,VALID,1002.22,VALID,0,VALID,94.4837,VALID,0,VALID,23.5673,VALID,50,VALID,0,
2012-03-01, 00:12:04,VALID,1002.22,VALID,0,VALID,94.4303,VALID,0,VALID,23.5478,VALID,50,VALID,0,
2012-03-01, 00:13:04,VALID,1002.21,VALID,0,VALID,94.3616,VALID,0,VALID,23.5089,VALID,50,VALID,0,
2012-03-01, 00:14:04,VALID,1002.21,VALID,0,VALID,94.4455,VALID,0,VALID,23.5284,VALID,50,VALID,0,
2012-03-01, 00:15:04,VALID,1002.19,VALID,0,VALID,94.4989,VALID,0,VALID,23.5284,VALID,50,VALID,0,
2012-03-01, 00:16:04,VALID,1002.22,VALID,0,VALID,94.4074,VALID,0,VALID,23.4877,VALID,50,VALID,0,
2012-03-01, 00:17:04,VALID,1002.2,VALID,0,VALID,94.3235,VALID,0,VALID,23.4505,VALID,50,VALID,0,
2012-03-01, 00:18:04,VALID,1002.19,VALID,0,VALID,94.354,VALID,0,VALID,23.4311,VALID,50,VALID,0,
2012-03-01, 00:19:04,VALID,1002.19,VALID,0,VALID,94.3464,VALID,0,VALID,23.4116,VALID,50,VALID,0,
2012-03-01, 00:20:04,VALID,1002.16,VALID,0,VALID,94.4074,VALID,0,VALID,23.3904,VALID,50,VALID,0,
2012-03-01, 00:21:04,VALID,1002.11,VALID,0,VALID,94.4303,VALID,0,VALID,23.3709,VALID,50,VALID,0,
2012-03-01, 00:22:04,VALID,1002.12,VALID,0,VALID,94.4684,VALID,0,VALID,23.3921,VALID,50,VALID,0,
2012-03-01, 00:23:04,VALID,1002.1,VALID,0,VALID,94.5142,VALID,0,VALID,23.3921,VALID,50,VALID,0,
2012-03-01, 00:24:04,VALID,1002.05,VALID,0,VALID,94.5523,VALID,0,VALID,23.3921,VALID,50,VALID,0,
2012-03-01, 00:25:04,VALID,1002.06,VALID,0,VALID,94.5829,VALID,0,VALID,23.3709,VALID,50,VALID,0,
2012-03-01, 00:26:04,VALID,1002.05,VALID,0,VALID,94.5829,VALID,0,VALID,23.3709,VALID,50,VALID,0,
2012-03-01, 00:27:04,VALID,1002.02,VALID,0,VALID,94.5676,VALID,0,VALID,23.3921,VALID,48,VALID,0,
2012-03-01, 00:28:04,VALID,1001.98,VALID,0,VALID,94.5523,VALID,0,VALID,23.3727,VALID,48,VALID,0,
2012-03-01, 00:29:04,VALID,1001.99,VALID,0,VALID,94.5676,VALID,0,VALID,23.332,VALID,48,VALID,0,
2012-03-01, 00:30:04,VALID,1001.98,VALID,0,VALID,94.6057,VALID,0,VALID,23.3514,VALID,48,VALID,0,
2012-03-01, 00:31:04,VALID,1001.98,VALID,0,VALID,94.5752,VALID,0,VALID,23.3727,VALID,48,VALID,0,
2012-03-01, 00:32:04,VALID,1001.98,VALID,0,VALID,94.5829,VALID,0,VALID,23.332,VALID,48,VALID,0,
2012-03-01, 00:33:04,VALID,1002.03,VALID,0,VALID,94.5981,VALID,0,VALID,23.332,VALID,48,VALID,0,
2012-03-01, 00:34:04,VALID,1002.02,VALID,0,VALID,94.5981,VALID,0,VALID,23.332,VALID,48,VALID,0,
2012-03-01, 00:35:04,VALID,1002.04,VALID,0,VALID,94.6057,VALID,0,VALID,23.3125,VALID,48,VALID,0,
2012-03-01, 00:36:04,VALID,1002.04,VALID,0,VALID,94.6363,VALID,0,VALID,23.3532,VALID,48,VALID,0,
2012-03-01, 00:37:04,VALID,1002.07,VALID,0,VALID,94.6897,VALID,0,VALID,23.3532,VALID,48,VALID,0,
2012-03-01, 00:38:04,VALID,1002.08,VALID,0,VALID,94.6897,VALID,0,VALID,23.3727,VALID,48,VALID,0,
2012-03-01, 00:39:04,VALID,1002.08,VALID,0,VALID,94.6973,VALID,0,VALID,23.3921,VALID,48,VALID,0,
2012-03-01, 00:40:04,VALID,1002.08,VALID,0,VALID,94.7583,VALID,0,VALID,23.4098,VALID,48,VALID,0,
2012-03-01, 00:41:04,VALID,1002.07,VALID,0,VALID,94.766,VALID,0,VALID,23.4311,VALID,48,VALID,0,
2012-03-01, 00:42:04,VALID,1002.04,VALID,0,VALID,94.7278,VALID,0,VALID,23.4311,VALID,48,VALID,0,
2012-03-01, 00:43:04,VALID,1002,VALID,0,VALID,94.7278,VALID,0,VALID,23.4098,VALID,48,VALID,0,
2012-03-01, 00:44:04,VALID,1001.94,VALID,0,VALID,94.766,VALID,0,VALID,23.4505,VALID,48,VALID,0,
2012-03-01, 00:45:04,VALID,1001.95,VALID,0,VALID,94.7888,VALID,0,VALID,23.4912,VALID,48,VALID,0,
2012-03-01, 00:46:04,VALID,1001.93,VALID,0,VALID,94.7888,VALID,0,VALID,23.5089,VALID,48,VALID,0,
2012-03-01, 00:47:04,VALID,1001.93,VALID,0,VALID,94.8422,VALID,0,VALID,23.5071,VALID,48,VALID,0,
2012-03-01, 00:48:04,VALID,1001.92,VALID,0,VALID,94.8117,VALID,0,VALID,23.5284,VALID,48,VALID,0,
2012-03-01, 00:49:04,VALID,1001.89,VALID,0,VALID,94.8117,VALID,0,VALID,23.5478,VALID,46,VALID,0,
2012-03-01, 00:50:04,VALID,1001.88,VALID,0,VALID,94.8041,VALID,0,VALID,23.5673,VALID,42,VALID,0,
2012-03-01, 00:51:04,VALID,1001.86,VALID,0,VALID,94.7888,VALID,0,VALID,23.546,VALID,40,VALID,0,
2012-03-01, 00:52:04,VALID,1001.86,VALID,0,VALID,94.7125,VALID,0,VALID,23.5478,VALID,40,VALID,0,
2012-03-01, 00:53:04,VALID,1001.86,VALID,0,VALID,94.6744,VALID,0,VALID,23.5089,VALID,40,VALID,0,
2012-03-01, 00:54:04,VALID,1001.84,VALID,0,VALID,94.621,VALID,0,VALID,23.4682,VALID,40,VALID,0,
2012-03-01, 00:55:04,VALID,1001.8,VALID,0,VALID,94.5905,VALID,0,VALID,23.47,VALID,32,VALID,0,
2012-03-01, 00:56:04,VALID,1001.81,VALID,0,VALID,94.621,VALID,0,VALID,23.4505,VALID,32,VALID,0,
2012-03-01, 00:57:04,VALID,1001.8,VALID,0,VALID,94.6286,VALID,0,VALID,23.47,VALID,32,VALID,0,
2012-03-01, 00:58:04,VALID,1001.78,VALID,0,VALID,94.6591,VALID,0,VALID,23.47,VALID,32,VALID,0,
2012-03-01, 00:59:04,VALID,1001.77,VALID,0,VALID,94.682,VALID,0,VALID,23.47,VALID,33,VALID,0,
2012-03-01, 01:00:04,VALID,1001.76,VALID,0,VALID,94.7202,VALID,0,VALID,23.4912,VALID,33,VALID,0,
2012-03-01, 01:01:04,VALID,1001.74,VALID,0,VALID,94.7583,VALID,0,VALID,23.5089,VALID,33,VALID,0,
2012-03-01, 01:02:04,VALID,1001.76,VALID,0,VALID,94.8041,VALID,0,VALID,23.5284,VALID,33,VALID,0,
2012-03-01, 01:03:04,VALID,1001.69,VALID,0,VALID,94.8117,VALID,0,VALID,23.5673,VALID,33,VALID,0,
2012-03-01, 01:04:04,VALID,1001.68,VALID,0,VALID,94.7354,VALID,0,VALID,23.546,VALID,33,VALID,0,
2012-03-01, 01:05:04,VALID,1001.64,VALID,0,VALID,94.7583,VALID,0,VALID,23.546,VALID,33,VALID,0,
2012-03-01, 01:06:04,VALID,1001.61,VALID,0,VALID,94.7202,VALID,0,VALID,23.5673,VALID,33,VALID,0,
2012-03-01, 01:07:04,VALID,1001.6,VALID,0,VALID,94.682,VALID,0,VALID,23.546,VALID,33,VALID,0,
2012-03-01, 01:08:04,VALID,1001.58,VALID,0,VALID,94.6591,VALID,0,VALID,23.5266,VALID,33,VALID,0,
2012-03-01, 01:09:04,VALID,1001.56,VALID,0,VALID,94.6668,VALID,0.0815089,VALID,23.546,VALID,33,VALID,0,
2012-03-01, 01:10:04,VALID,1001.51,VALID,0,VALID,94.6668,VALID,0.0815089,VALID,23.546,VALID,33,VALID,0,
2012-03-01, 01:11:04,VALID,1001.5,VALID,0,VALID,94.6973,VALID,0,VALID,23.546,VALID,33,VALID,0,
2012-03-01, 01:12:04,VALID,1001.5,VALID,0,VALID,94.7278,VALID,0.0815089,VALID,23.5637,VALID,33,VALID,0,
2012-03-01, 01:13:04,VALID,1001.45,VALID,0,VALID,94.7812,VALID,0,VALID,23.6044,VALID,33,VALID,0,
2012-03-01, 01:14:04,VALID,1001.47,VALID,0,VALID,94.827,VALID,0,VALID,23.6434,VALID,33,VALID,0,
2012-03-01, 01:15:04,VALID,1001.45,VALID,0,VALID,94.8499,VALID,0,VALID,23.6823,VALID,33,VALID,0,
2012-03-01, 01:16:04,VALID,1001.49,VALID,0,VALID,94.8346,VALID,0.0815089,VALID,23.6805,VALID,33,VALID,0,
2012-03-01, 01:17:04,VALID,1001.47,VALID,0,VALID,94.766,VALID,0,VALID,23.6823,VALID,33,VALID,0,
2012-03-01, 01:18:04,VALID,1001.45,VALID,0,VALID,94.7278,VALID,0.0815089,VALID,23.661,VALID,33,VALID,0,
2012-03-01, 01:19:04,VALID,1001.44,VALID,0,VALID,94.682,VALID,0.0815089,VALID,23.6628,VALID,33,VALID,0,
2012-03-01, 01:20:04,VALID,1001.47,VALID,0,VALID,94.6363,VALID,0,VALID,23.6221,VALID,33,VALID,0,
2012-03-01, 01:21:04,VALID,1001.48,VALID,0,VALID,94.6134,VALID,0,VALID,23.6026,VALID,33,VALID,0,
2012-03-01, 01:22:04,VALID,1001.45,VALID,0,VALID,94.5981,VALID,0.0815089,VALID,23.6026,VALID,33,VALID,0,
2012-03-01, 01:23:04,VALID,1001.45,VALID,0,VALID,94.5829,VALID,0.0815089,VALID,23.6044,VALID,33,VALID,0,
2012-03-01, 01:24:04,VALID,1001.42,VALID,0,VALID,94.5905,VALID,0,VALID,23.5655,VALID,33,VALID,0,
2012-03-01, 01:25:04,VALID,1001.41,VALID,0,VALID,94.5829,VALID,0,VALID,23.5655,VALID,33,VALID,0,
2012-03-01, 01:26:04,VALID,1001.39,VALID,0,VALID,94.5371,VALID,0,VALID,23.5673,VALID,33,VALID,0,
2012-03-01, 01:27:04,VALID,1001.38,VALID,0,VALID,94.5981,VALID,0,VALID,23.5868,VALID,33,VALID,0,
2012-03-01, 01:28:04,VALID,1001.36,VALID,0,VALID,94.6668,VALID,0,VALID,23.6062,VALID,33,VALID,0,
2012-03-01, 01:29:04,VALID,1001.35,VALID,0,VALID,94.7202,VALID,0,VALID,23.6062,VALID,33,VALID,0,
2012-03-01, 01:30:04,VALID,1001.38,VALID,0,VALID,94.7049,VALID,0,VALID,23.6452,VALID,33,VALID,0,
2012-03-01, 01:31:04,VALID,1001.35,VALID,0,VALID,94.6897,VALID,0,VALID,23.6239,VALID,33,VALID,0,
2012-03-01, 01:32:04,VALID,1001.33,VALID,0,VALID,94.7049,VALID,0,VALID,23.6452,VALID,33,VALID,0,
2012-03-01, 01:33:04,VALID,1001.31,VALID,0,VALID,94.6515,VALID,0,VALID,23.6664,VALID,33,VALID,0,
2012-03-01, 01:34:04,VALID,1001.3,VALID,0,VALID,94.6134,VALID,0,VALID,23.6257,VALID,33,VALID,0,
2012-03-01, 01:35:04,VALID,1001.24,VALID,0,VALID,94.5981,VALID,0,VALID,23.6257,VALID,33,VALID,0,
2012-03-01, 01:36:04,VALID,1001.24,VALID,0,VALID,94.5905,VALID,0,VALID,23.6044,VALID,33,VALID,0,
2012-03-01, 01:37:04,VALID,1001.2,VALID,0,VALID,94.5829,VALID,0,VALID,23.6275,VALID,33,VALID,0,
2012-03-01, 01:38:04,VALID,1001.2,VALID,0,VALID,94.6286,VALID,0,VALID,23.6044,VALID,33,VALID,0,
2012-03-01, 01:39:04,VALID,1001.15,VALID,0,VALID,94.6591,VALID,0.0815089,VALID,23.6434,VALID,33,VALID,0,
2012-03-01, 01:40:04,VALID,1001.13,VALID,0,VALID,94.6363,VALID,0.0815089,VALID,23.6434,VALID,33,VALID,0,
2012-03-01, 01:41:04,VALID,1001.11,VALID,0,VALID,94.621,VALID,0.0815089,VALID,23.6239,VALID,33,VALID,0,
2012-03-01, 01:42:04,VALID,1001.1,VALID,0,VALID,94.6363,VALID,0.0815089,VALID,23.6434,VALID,33,VALID,0,
2012-03-01, 01:43:04,VALID,1001.04,VALID,0,VALID,94.6286,VALID,0.0815089,VALID,23.6434,VALID,33,VALID,0,
2012-03-01, 01:44:04,VALID,1001.02,VALID,0,VALID,94.6286,VALID,0.0815089,VALID,23.6628,VALID,33,VALID,0,
2012-03-01, 01:45:04,VALID,1001.01,VALID,0,VALID,94.5829,VALID,0.0815089,VALID,23.6239,VALID,33,VALID,0,
2012-03-01, 01:46:04,VALID,1001.02,VALID,0,VALID,94.5676,VALID,0.0815089,VALID,23.6239,VALID,33,VALID,0,
2012-03-01, 01:47:04,VALID,1000.96,VALID,0,VALID,94.5295,VALID,0.0815089,VALID,23.5637,VALID,33,VALID,0,
2012-03-01, 01:48:04,VALID,1000.95,VALID,0,VALID,94.4989,VALID,0.0815089,VALID,23.5637,VALID,33,VALID,0,
2012-03-01, 01:49:04,VALID,1000.98,VALID,0,VALID,94.4913,VALID,0.0815089,VALID,23.5655,VALID,33,VALID,0,
2012-03-01, 01:50:04,VALID,1000.96,VALID,0,VALID,94.5142,VALID,0.0815089,VALID,23.5248,VALID,33,VALID,0,
2012-03-01, 01:51:04,VALID,1000.93,VALID,0,VALID,94.5066,VALID,0.0815089,VALID,23.5266,VALID,33,VALID,0,
2012-03-01, 01:52:04,VALID,1000.94,VALID,0,VALID,94.5676,VALID,0.0815089,VALID,23.546,VALID,33,VALID,0,
2012-03-01, 01:53:04,VALID,1000.95,VALID,0,VALID,94.56,VALID,0.0815089,VALID,23.546,VALID,33,VALID,0,
2012-03-01, 01:54:04,VALID,1000.96,VALID,0,VALID,94.5752,VALID,0.0815089,VALID,23.546,VALID,33,VALID,0,
2012-03-01, 01:55:04,VALID,1001,VALID,0,VALID,94.5752,VALID,0.0815089,VALID,23.546,VALID,33,VALID,0,
2012-03-01, 01:56:04,VALID,1000.99,VALID,0,VALID,94.5752,VALID,0.0815089,VALID,23.546,VALID,33,VALID,0,
2012-03-01, 01:57:04,VALID,1000.96,VALID,0,VALID,94.6363,VALID,0.0815089,VALID,23.5443,VALID,33,VALID,0,
2012-03-01, 01:58:04,VALID,1001,VALID,0,VALID,94.6668,VALID,0.0815089,VALID,23.585,VALID,33,VALID,0,
2012-03-01, 01:59:04,VALID,1001.01,VALID,0,VALID,94.6897,VALID,0.0815089,VALID,23.5832,VALID,33,VALID,0,
2012-03-01, 02:00:04,VALID,1001.02,VALID,0,VALID,94.7049,VALID,0,VALID,23.6239,VALID,33,VALID,0,
2012-03-01, 02:01:04,VALID,1001.03,VALID,0,VALID,94.6744,VALID,0.0815089,VALID,23.6026,VALID,33,VALID,0,
2012-03-01, 02:02:04,VALID,1001.03,VALID,0,VALID,94.5981,VALID,0.0815089,VALID,23.5832,VALID,33,VALID,0,
2012-03-01, 02:03:04,VALID,1001.02,VALID,0,VALID,94.6057,VALID,0.0815089,VALID,23.585,VALID,33,VALID,0,
2012-03-01, 02:04:04,VALID,1001.01,VALID,0,VALID,94.5447,VALID,0,VALID,23.5655,VALID,33,VALID,0,
2012-03-01, 02:05:04,VALID,1001,VALID,0,VALID,94.5218,VALID,0.0815089,VALID,23.5655,VALID,33,VALID,0,
2012-03-01, 02:06:04,VALID,1000.99,VALID,0,VALID,94.5218,VALID,0,VALID,23.5248,VALID,33,VALID,0,
2012-03-01, 02:07:04,VALID,1000.97,VALID,0,VALID,94.5371,VALID,0.0815089,VALID,23.546,VALID,33,VALID,0,
2012-03-01, 02:08:04,VALID,1000.94,VALID,0,VALID,94.5142,VALID,0,VALID,23.5266,VALID,33,VALID,0,
2012-03-01, 02:09:04,VALID,1000.95,VALID,0,VALID,94.5295,VALID,0,VALID,23.5266,VALID,33,VALID,0,
2012-03-01, 02:10:04,VALID,1000.94,VALID,0,VALID,94.5447,VALID,0.0815089,VALID,23.5266,VALID,33,VALID,0,
2012-03-01, 02:11:04,VALID,1000.93,VALID,0,VALID,94.5523,VALID,0.0815089,VALID,23.5053,VALID,33,VALID,0,
2012-03-01, 02:12:04,VALID,1000.94,VALID,0,VALID,94.6057,VALID,0.0815089,VALID,23.546,VALID,33,VALID,0,
2012-03-01, 02:13:04,VALID,1000.93,VALID,0,VALID,94.5981,VALID,0,VALID,23.5248,VALID,33,VALID,0,
2012-03-01, 02:14:04,VALID,1000.92,VALID,0,VALID,94.5829,VALID,0,VALID,23.5266,VALID,33,VALID,0,
2012-03-01, 02:15:04,VALID,1000.91,VALID,0,VALID,94.6286,VALID,0,VALID,23.5655,VALID,33,VALID,0,
2012-03-01, 02:16:04,VALID,1000.91,VALID,0,VALID,94.6363,VALID,0.0815089,VALID,23.585,VALID,33,VALID,0,
2012-03-01, 02:17:04,VALID,1000.91,VALID,0,VALID,94.621,VALID,0.0815089,VALID,23.585,VALID,33,VALID,0,
2012-03-01, 02:18:04,VALID,1000.91,VALID,0,VALID,94.6057,VALID,0,VALID,23.546,VALID,33,VALID,0,
2012-03-01, 02:19:04,VALID,1000.9,VALID,0,VALID,94.5829,VALID,0.0815089,VALID,23.5443,VALID,33,VALID,0,
2012-03-01, 02:20:04,VALID,1000.93,VALID,0,VALID,94.5905,VALID,0.0815089,VALID,23.5443,VALID,33,VALID,0,
2012-03-01, 02:21:04,VALID,1000.94,VALID,0,VALID,94.56,VALID,0.0815089,VALID,23.5655,VALID,33,VALID,0,
2012-03-01, 02:22:04,VALID,1000.93,VALID,0,VALID,94.4455,VALID,0.0815089,VALID,23.5071,VALID,32,VALID,0,
2012-03-01, 02:23:04,VALID,1000.91,VALID,0,VALID,94.5142,VALID,0.0815089,VALID,23.5071,VALID,32,VALID,0,
2012-03-01, 02:24:04,VALID,1000.91,VALID,0,VALID,94.4837,VALID,0.0815089,VALID,23.4877,VALID,32,VALID,0,
2012-03-01, 02:25:04,VALID,1000.91,VALID,0,VALID,94.3845,VALID,0,VALID,23.4487,VALID,32,VALID,0,
2012-03-01, 02:26:04,VALID,1000.9,VALID,0,VALID,94.3921,VALID,0,VALID,23.4293,VALID,32,VALID,0,
2012-03-01, 02:27:04,VALID,1000.92,VALID,0,VALID,94.3692,VALID,0,VALID,23.3904,VALID,31,VALID,0,
2012-03-01, 02:28:04,VALID,1000.92,VALID,0,VALID,94.5447,VALID,0.0815089,VALID,23.408,VALID,29,VALID,0,
2012-03-01, 02:29:04,VALID,1000.89,VALID,0,VALID,94.5981,VALID,0.0815089,VALID,23.4293,VALID,29,VALID,0,
2012-03-01, 02:30:04,VALID,1000.88,VALID,0,VALID,94.5295,VALID,0.0815089,VALID,23.4098,VALID,29,VALID,0,
2012-03-01, 02:31:04,VALID,1000.86,VALID,0,VALID,94.5371,VALID,0.0815089,VALID,23.4293,VALID,29,VALID,0,
2012-03-01, 02:32:04,VALID,1000.85,VALID,0,VALID,94.4913,VALID,0.0815089,VALID,23.4098,VALID,29,VALID,0,
2012-03-01, 02:33:04,VALID,1000.82,VALID,0,VALID,94.4989,VALID,0,VALID,23.3904,VALID,29,VALID,0,
2012-03-01, 02:34:04,VALID,1000.79,VALID,0,VALID,94.7278,VALID,0.0815089,VALID,23.47,VALID,29,VALID,0,
2012-03-01, 02:35:04,VALID,1000.79,VALID,0,VALID,94.6363,VALID,0.0815089,VALID,23.4487,VALID,29,VALID,0,
2012-03-01, 02:36:04,VALID,1000.77,VALID,0,VALID,94.682,VALID,0,VALID,23.4487,VALID,29,VALID,0,
2012-03-01, 02:37:04,VALID,1000.77,VALID,0,VALID,94.5447,VALID,0.0815089,VALID,23.4293,VALID,29,VALID,0,
2012-03-01, 02:38:04,VALID,1000.79,VALID,0,VALID,94.4532,VALID,0.163018,VALID,23.4098,VALID,29,VALID,0,
2012-03-01, 02:39:04,VALID,1000.79,VALID,0,VALID,94.4989,VALID,0,VALID,23.3709,VALID,29,VALID,0,
2012-03-01, 02:40:04,VALID,1000.82,VALID,0,VALID,94.4532,VALID,0,VALID,23.3532,VALID,29,VALID,0,
2012-03-01, 02:41:04,VALID,1000.8,VALID,0,VALID,94.4684,VALID,0,VALID,23.332,VALID,29,VALID,0,
2012-03-01, 02:42:04,VALID,1000.78,VALID,0,VALID,94.4684,VALID,0,VALID,23.3337,VALID,29,VALID,0,
2012-03-01, 02:43:04,VALID,1000.79,VALID,0,VALID,94.5218,VALID,0,VALID,23.3143,VALID,29,VALID,0,
2012-03-01, 02:44:04,VALID,1000.77,VALID,0,VALID,94.5371,VALID,0,VALID,23.3355,VALID,29,VALID,0,
2012-03-01, 02:45:04,VALID,1000.79,VALID,0,VALID,94.4989,VALID,0,VALID,23.2948,VALID,29,VALID,0,
2012-03-01, 02:46:04,VALID,1000.8,VALID,0,VALID,94.5218,VALID,0,VALID,23.2948,VALID,29,VALID,0,
2012-03-01, 02:47:04,VALID,1000.83,VALID,0,VALID,94.5066,VALID,0,VALID,23.2754,VALID,29,VALID,0,
2012-03-01, 02:48:04,VALID,1000.8,VALID,0,VALID,94.5218,VALID,0,VALID,23.2559,VALID,29,VALID,0,
2012-03-01, 02:49:04,VALID,1000.81,VALID,0,VALID,94.5523,VALID,0,VALID,23.2559,VALID,29,VALID,0,
2012-03-01, 02:50:04,VALID,1000.83,VALID,0,VALID,94.5218,VALID,0,VALID,23.2559,VALID,29,VALID,0,
2012-03-01, 02:51:04,VALID,1000.85,VALID,0,VALID,94.5218,VALID,0,VALID,23.217,VALID,29,VALID,0,
2012-03-01, 02:52:04,VALID,1000.83,VALID,0,VALID,94.5447,VALID,0,VALID,23.217,VALID,29,VALID,0,
2012-03-01, 02:53:04,VALID,1000.84,VALID,0,VALID,94.5066,VALID,0,VALID,23.1957,VALID,29,VALID,0,
2012-03-01, 02:54:04,VALID,1000.83,VALID,0,VALID,94.4913,VALID,0.0815089,VALID,23.1763,VALID,29,VALID,0,
2012-03-01, 02:55:04,VALID,1000.84,VALID,0,VALID,94.4303,VALID,0.0815089,VALID,23.1586,VALID,29,VALID,0,
2012-03-01, 02:56:04,VALID,1000.82,VALID,0,VALID,94.5142,VALID,0.0815089,VALID,23.1162,VALID,29,VALID,0,
2012-03-01, 02:57:04,VALID,1000.83,VALID,0,VALID,94.5066,VALID,0.0815089,VALID,23.1391,VALID,29,VALID,0,
2012-03-01, 02:58:04,VALID,1000.79,VALID,0,VALID,94.5752,VALID,0,VALID,23.1391,VALID,29,VALID,0,
2012-03-01, 02:59:04,VALID,1000.78,VALID,0,VALID,94.5371,VALID,0,VALID,23.0984,VALID,29,VALID,0,
2012-03-01, 03:00:04,VALID,1000.78,VALID,0,VALID,94.6439,VALID,0.0815089,VALID,23.1179,VALID,29,VALID,0,
2012-03-01, 03:01:04,VALID,1000.75,VALID,0,VALID,94.682,VALID,0.0815089,VALID,23.1162,VALID,29,VALID,0,
2012-03-01, 03:02:04,VALID,1000.77,VALID,0,VALID,94.6439,VALID,0.0815089,VALID,23.1179,VALID,29,VALID,0,
2012-03-01, 03:03:04,VALID,1000.75,VALID,0,VALID,94.6744,VALID,0.0815089,VALID,23.0967,VALID,28,VALID,0,
2012-03-01, 03:04:04,VALID,1000.78,VALID,0,VALID,94.7354,VALID,0.0815089,VALID,23.1162,VALID,27,VALID,0,
2012-03-01, 03:05:04,VALID,1000.78,VALID,0,VALID,94.766,VALID,0.0815089,VALID,23.1162,VALID,17,VALID,0.3625,
2012-03-01, 03:06:04,VALID,1000.78,VALID,0,VALID,94.7812,VALID,0.0815089,VALID,23.1356,VALID,17,VALID,0.507813,
2012-03-01, 03:07:04,VALID,1000.79,VALID,0,VALID,94.7736,VALID,0.0815089,VALID,23.1356,VALID,17,VALID,0.414063,
2012-03-01, 03:08:04,VALID,1000.82,VALID,0,VALID,94.766,VALID,0,VALID,23.1568,VALID,17,VALID,0.258203,
2012-03-01, 03:09:04,VALID,1000.81,VALID,0,VALID,94.7278,VALID,0,VALID,23.1374,VALID,17,VALID,0.337891,
2012-03-01, 03:10:04,VALID,1000.79,VALID,0,VALID,94.7736,VALID,0,VALID,23.1356,VALID,17,VALID,0.299219,
2012-03-01, 03:11:04,VALID,1000.81,VALID,0,VALID,94.766,VALID,0,VALID,23.1568,VALID,17,VALID,0.0949219,
2012-03-01, 03:12:04,VALID,1000.82,VALID,0,VALID,94.682,VALID,0.0815089,VALID,23.1179,VALID,17,VALID,0.215625,
2012-03-01, 03:13:04,VALID,1000.84,VALID,0,VALID,94.8041,VALID,0.0815089,VALID,23.1162,VALID,17,VALID,0.405469,
2012-03-01, 03:14:04,VALID,1000.83,VALID,0,VALID,94.8804,VALID,0,VALID,23.1957,VALID,17,VALID,0.385547,
2012-03-01, 03:15:04,VALID,1000.86,VALID,0,VALID,94.8575,VALID,0.0815089,VALID,23.1745,VALID,17,VALID,0.645703,
2012-03-01, 03:16:04,VALID,1000.87,VALID,0,VALID,94.8117,VALID,0.0815089,VALID,23.1763,VALID,17,VALID,0.554688,
2012-03-01, 03:17:04,VALID,1000.84,VALID,0,VALID,94.827,VALID,0.0815089,VALID,23.1551,VALID,17,VALID,0.58125,
2012-03-01, 03:18:04,VALID,1000.82,VALID,0,VALID,94.8422,VALID,0.0815089,VALID,23.1957,VALID,17,VALID,0.420312,
2012-03-01, 03:19:04,VALID,1000.76,VALID,0,VALID,94.8422,VALID,0,VALID,23.1745,VALID,17,VALID,0.277734,
2012-03-01, 03:20:04,VALID,1000.76,VALID,0,VALID,94.8346,VALID,0.0815089,VALID,23.1551,VALID,17,VALID,0.335938,
2012-03-01, 03:21:04,VALID,1000.78,VALID,0,VALID,94.8346,VALID,0.0815089,VALID,23.1763,VALID,17,VALID,0.344922,
2012-03-01, 03:22:04,VALID,1000.76,VALID,0,VALID,94.8499,VALID,0.0815089,VALID,23.1763,VALID,17,VALID,0.187109,
2012-03-01, 03:23:04,VALID,1000.77,VALID,0,VALID,94.9262,VALID,0.0815089,VALID,23.2134,VALID,17,VALID,0.568359,
2012-03-01, 03:24:04,VALID,1000.78,VALID,0,VALID,94.9185,VALID,0,VALID,23.2559,VALID,17,VALID,0.468359,
2012-03-01, 03:25:04,VALID,1000.8,VALID,0,VALID,94.888,VALID,0,VALID,23.2754,VALID,17,VALID,0.397656,
2012-03-01, 03:26:04,VALID,1000.8,VALID,0,VALID,94.8346,VALID,0,VALID,23.2152,VALID,17,VALID,0.200781,
2012-03-01, 03:27:04,VALID,1000.79,VALID,0,VALID,94.7507,VALID,0,VALID,23.178,VALID,17,VALID,0.422266,
2012-03-01, 03:28:04,VALID,1000.82,VALID,0,VALID,94.7354,VALID,0,VALID,23.1568,VALID,17,VALID,0.457031,
2012-03-01, 03:29:04,VALID,1000.79,VALID,0,VALID,94.7431,VALID,0,VALID,23.1586,VALID,17,VALID,0.439453,
2012-03-01, 03:30:04,VALID,1000.83,VALID,0,VALID,94.6744,VALID,0,VALID,23.1197,VALID,17,VALID,0.432422,
2012-03-01, 03:31:04,VALID,1000.81,VALID,0,VALID,94.6591,VALID,0,VALID,23.1002,VALID,17,VALID,0.508203,
2012-03-01, 03:32:04,VALID,1000.84,VALID,0,VALID,94.7202,VALID,0,VALID,23.079,VALID,17,VALID,0.415234,
2012-03-01, 03:33:04,VALID,1000.84,VALID,0,VALID,94.7278,VALID,0,VALID,23.0595,VALID,17,VALID,0.400781,
2012-03-01, 03:34:04,VALID,1000.84,VALID,0,VALID,94.7431,VALID,0,VALID,23.0595,VALID,17,VALID,0.302734,
2012-03-01, 03:35:04,VALID,1000.83,VALID,0,VALID,94.7888,VALID,0,VALID,23.1197,VALID,17,VALID,0.446875,
2012-03-01, 03:36:04,VALID,1000.81,VALID,0,VALID,94.8041,VALID,0,VALID,23.1197,VALID,17,VALID,0.344922,
2012-03-01, 03:37:04,VALID,1000.8,VALID,0,VALID,94.7431,VALID,0,VALID,23.1002,VALID,17,VALID,0.203516,
2012-03-01, 03:38:04,VALID,1000.79,VALID,0,VALID,94.7125,VALID,0,VALID,23.0595,VALID,17,VALID,0.428125,
2012-03-01, 03:39:04,VALID,1000.78,VALID,0,VALID,94.766,VALID,0,VALID,23.0613,VALID,17,VALID,0.321094,
2012-03-01, 03:40:04,VALID,1000.8,VALID,0,VALID,94.7965,VALID,0,VALID,23.0807,VALID,15,VALID,0.466797,
2012-03-01, 03:41:04,VALID,1000.79,VALID,0,VALID,94.8041,VALID,0,VALID,23.0613,VALID,15,VALID,0.269531,
2012-03-01, 03:42:04,VALID,1000.79,VALID,0,VALID,94.8194,VALID,0,VALID,23.0595,VALID,15,VALID,0.271875,
2012-03-01, 03:43:04,VALID,1000.81,VALID,0,VALID,94.8346,VALID,0,VALID,23.1002,VALID,15,VALID,0.258203,
2012-03-01, 03:44:04,VALID,1000.83,VALID,0,VALID,94.888,VALID,0,VALID,23.1197,VALID,15,VALID,0.202734,
2012-03-01, 03:45:04,VALID,1000.88,VALID,0,VALID,94.888,VALID,0,VALID,23.1409,VALID,15,VALID,0.209766,
2012-03-01, 03:46:04,VALID,1000.86,VALID,0,VALID,94.9567,VALID,0,VALID,23.1374,VALID,15,VALID,0,
2012-03-01, 03:47:04,VALID,1000.85,VALID,0,VALID,95.0177,VALID,0,VALID,23.1975,VALID,15,VALID,0,
2012-03-01, 03:48:04,VALID,1000.87,VALID,0,VALID,94.9872,VALID,0,VALID,23.2364,VALID,12,VALID,0.205859,
2012-03-01, 03:49:04,VALID,1000.88,VALID,0,VALID,94.949,VALID,0,VALID,23.1957,VALID,12,VALID,0.444531,
2012-03-01, 03:50:04,VALID,1000.89,VALID,0,VALID,94.8041,VALID,0,VALID,23.1568,VALID,12,VALID,0.429297,
2012-03-01, 03:51:04,VALID,1000.87,VALID,0,VALID,94.6439,VALID,0,VALID,23.0807,VALID,12,VALID,0.315625,
2012-03-01, 03:52:04,VALID,1000.86,VALID,0,VALID,94.5981,VALID,0,VALID,23.0206,VALID,12,VALID,0.341797,
2012-03-01, 03:53:04,VALID,1000.87,VALID,0,VALID,94.5829,VALID,0,VALID,23.0029,VALID,12,VALID,0.404687,